Time,TemperatureF,DewpointF,PressureIn,WindDirection,WindDirectionDegrees,WindSpeedMPH,WindSpeedGustMPH,Humidity,HourlyPrecipIn,Conditions,Clouds,dailyrainin,SoftwareType,DateUTC
2013-10-24 00:00:00,48.3,37.8,30.02,West,280,3.0,3.0,67,0.00,,,0.00,Wunderground v.1.15,2013-10-24 04:00:00,
2013-10-24 00:05:00,48.2,37.8,30.02,West,281,3.0,3.0,67,0.00,,,0.00,Wunderground v.1.15,2013-10-24 04:05:00,
2013-10-24 00:10:00,48.1,37.7,30.02,WNW,288,3.0,3.0,67,0.00,,,0.00,Wunderground v.1.15,2013-10-24 04:10:00,
2013-10-24 00:15:00,47.9,37.5,30.02,WNW,285,3.0,3.0,67,0.00,,,0.00,Wunderground v.1.15,2013-10-24 04:15:00,
2013-10-24 00:20:00,47.7,37.7,30.02,WNW,286,2.0,2.0,68,0.00,,,0.00,Wunderground v.1.15,2013-10-24 04:20:00,
2013-10-24 00:25:00,47.6,37.6,30.02,WNW,288,2.0,7.0,68,0.00,,,0.00,Wunderground v.1.15,2013-10-24 04:25:00,
2013-10-24 00:30:00,47.4,37.7,30.02,WNW,289,3.0,3.0,69,0.00,,,0.00,Wunderground v.1.15,2013-10-24 04:30:00,
2013-10-24 00:35:00,47.3,37.6,30.02,WNW,291,3.0,6.0,69,0.00,,,0.00,Wunderground v.1.15,2013-10-24 04:35:00,
2013-10-24 00:40:00,47.2,37.5,30.02,WNW,295,3.0,3.0,69,0.00,,,0.00,Wunderground v.1.15,2013-10-24 04:40:00,
2013-10-24 00:45:00,47.1,37.4,30.02,WNW,290,2.0,3.0,69,0.00,,,0.00,Wunderground v.1.15,2013-10-24 04:45:00,
2013-10-24 00:55:00,46.8,37.2,30.03,WNW,294,1.0,2.0,69,0.00,,,0.00,Wunderground v.1.15,2013-10-24 04:55:00,
2013-10-24 01:00:00,46.7,37.4,30.03,WNW,294,1.0,1.0,70,0.00,,,0.00,Wunderground v.1.15,2013-10-24 05:00:00,
2013-10-24 01:10:00,46.3,37.4,30.03,WNW,293,0.0,0.0,71,0.00,,,0.00,Wunderground v.1.15,2013-10-24 05:10:00,
2013-10-24 01:15:00,46.1,37.2,30.04,WNW,294,0.0,0.0,71,0.00,,,0.00,Wunderground v.1.15,2013-10-24 05:15:00,
2013-10-24 01:20:00,45.8,37.3,30.04,WNW,294,0.0,0.0,72,0.00,,,0.00,Wunderground v.1.15,2013-10-24 05:20:00,
2013-10-24 01:25:00,45.6,37.1,30.04,WNW,294,0.0,0.0,72,0.00,,,0.00,Wunderground v.1.15,2013-10-24 05:25:00,
2013-10-24 01:35:00,45.1,37.0,30.04,WNW,294,0.0,0.0,73,0.00,,,0.00,Wunderground v.1.15,2013-10-24 05:35:00,
2013-10-24 01:40:00,45.0,37.2,30.04,WNW,298,0.0,0.0,74,0.00,,,0.00,Wunderground v.1.15,2013-10-24 05:40:00,
2013-10-24 01:45:00,45.0,36.9,30.04,WNW,298,0.0,0.0,73,0.00,,,0.00,Wunderground v.1.15,2013-10-24 05:45:00,
2013-10-24 01:50:00,45.1,37.0,30.04,WNW,298,1.0,1.0,73,0.00,,,0.00,Wunderground v.1.15,2013-10-24 05:50:00,
2013-10-24 01:55:00,45.1,37.0,30.04,WNW,294,1.0,1.0,73,0.00,,,0.00,Wunderground v.1.15,2013-10-24 05:55:00,
2013-10-24 02:05:00,44.7,36.9,30.04,WNW,294,0.0,1.0,74,0.00,,,0.00,Wunderground v.1.15,2013-10-24 06:05:00,
2013-10-24 02:10:00,44.5,36.7,30.04,WNW,292,1.0,5.0,74,0.00,,,0.00,Wunderground v.1.15,2013-10-24 06:10:00,
2013-10-24 02:15:00,44.5,36.7,30.04,WNW,292,2.0,7.0,74,0.00,,,0.00,Wunderground v.1.15,2013-10-24 06:15:00,
2013-10-24 02:20:00,44.5,36.7,30.04,WNW,292,2.0,2.0,74,0.00,,,0.00,Wunderground v.1.15,2013-10-24 06:20:00,
2013-10-24 02:25:00,44.3,36.5,30.04,WNW,293,1.0,2.0,74,0.00,,,0.00,Wunderground v.1.15,2013-10-24 06:25:00,
2013-10-24 02:30:00,44.2,36.8,30.04,WNW,294,2.0,2.0,75,0.00,,,0.00,Wunderground v.1.15,2013-10-24 06:30:00,
2013-10-24 02:35:00,44.1,36.3,30.04,WNW,288,3.0,3.0,74,0.00,,,0.00,Wunderground v.1.15,2013-10-24 06:35:00,
2013-10-24 02:45:00,43.9,36.5,30.04,WNW,288,1.0,7.0,75,0.00,,,0.00,Wunderground v.1.15,2013-10-24 06:45:00,
2013-10-24 02:50:00,43.8,36.4,30.04,WNW,288,1.0,1.0,75,0.00,,,0.00,Wunderground v.1.15,2013-10-24 06:50:00,
2013-10-24 02:55:00,43.7,36.3,30.04,WNW,289,2.0,5.0,75,0.00,,,0.00,Wunderground v.1.15,2013-10-24 06:55:00,
2013-10-24 03:00:00,43.6,36.2,30.05,WNW,288,1.0,1.0,75,0.00,,,0.00,Wunderground v.1.15,2013-10-24 07:00:00,
2013-10-24 03:10:00,43.3,36.2,30.05,WNW,288,0.0,0.0,76,0.00,,,0.00,Wunderground v.1.15,2013-10-24 07:10:00,
2013-10-24 03:20:00,43.0,36.3,30.06,WNW,287,0.0,0.0,77,0.00,,,0.00,Wunderground v.1.15,2013-10-24 07:20:00,
2013-10-24 03:25:00,42.9,36.5,30.06,WNW,287,0.0,0.0,78,0.00,,,0.00,Wunderground v.1.15,2013-10-24 07:25:00,
2013-10-24 03:30:00,42.8,36.4,30.06,WNW,287,0.0,0.0,78,0.00,,,0.00,Wunderground v.1.15,2013-10-24 07:30:00,
2013-10-24 03:35:00,42.7,36.0,30.06,WNW,287,0.0,0.0,77,0.00,,,0.00,Wunderground v.1.15,2013-10-24 07:35:00,
2013-10-24 03:40:00,42.5,36.1,30.06,WNW,287,0.0,0.0,78,0.00,,,0.00,Wunderground v.1.15,2013-10-24 07:40:00,
2013-10-24 03:45:00,42.4,36.0,30.06,WNW,287,0.0,2.0,78,0.00,,,0.00,Wunderground v.1.15,2013-10-24 07:45:00,
2013-10-24 03:50:00,42.3,35.9,30.07,WNW,287,1.0,1.0,78,0.00,,,0.00,Wunderground v.1.15,2013-10-24 07:50:00,
2013-10-24 04:00:00,42.3,35.6,30.07,WNW,287,1.0,1.0,77,0.00,,,0.00,Wunderground v.1.15,2013-10-24 08:00:00,
2013-10-24 04:10:00,42.2,35.5,30.08,WNW,287,1.0,1.0,77,0.00,,,0.00,Wunderground v.1.15,2013-10-24 08:10:00,
2013-10-24 04:15:00,42.2,35.8,30.08,WNW,287,0.0,1.0,78,0.00,,,0.00,Wunderground v.1.15,2013-10-24 08:15:00,
2013-10-24 04:20:00,41.9,35.5,30.08,WNW,287,0.0,0.0,78,0.00,,,0.00,Wunderground v.1.15,2013-10-24 08:20:00,
2013-10-24 04:25:00,41.7,35.7,30.09,WNW,282,2.0,5.0,79,0.00,,,0.00,Wunderground v.1.15,2013-10-24 08:25:00,
2013-10-24 04:35:00,41.5,35.8,30.09,West,281,1.0,2.0,80,0.00,,,0.00,Wunderground v.1.15,2013-10-24 08:35:00,
2013-10-24 04:40:00,41.4,35.7,30.09,West,281,0.0,5.0,80,0.00,,,0.00,Wunderground v.1.15,2013-10-24 08:40:00,
2013-10-24 04:45:00,41.3,35.6,30.09,West,281,0.0,5.0,80,0.00,,,0.00,Wunderground v.1.15,2013-10-24 08:45:00,
2013-10-24 04:50:00,41.2,35.5,30.09,West,281,1.0,1.0,80,0.00,,,0.00,Wunderground v.1.15,2013-10-24 08:50:00,
2013-10-24 04:55:00,41.1,35.4,30.09,West,281,0.0,1.0,80,0.00,,,0.00,Wunderground v.1.15,2013-10-24 08:55:00,
2013-10-24 05:00:00,41.0,35.6,30.10,West,281,0.0,0.0,81,0.00,,,0.00,Wunderground v.1.15,2013-10-24 09:00:00,
2013-10-24 05:10:00,40.9,35.5,30.10,West,281,0.0,0.0,81,0.00,,,0.00,Wunderground v.1.15,2013-10-24 09:10:00,
2013-10-24 05:15:00,40.9,35.5,30.10,West,281,0.0,0.0,81,0.00,,,0.00,Wunderground v.1.15,2013-10-24 09:15:00,
2013-10-24 05:20:00,40.8,35.4,30.10,West,281,0.0,0.0,81,0.00,,,0.00,Wunderground v.1.15,2013-10-24 09:20:00,
2013-10-24 05:25:00,40.6,35.5,30.10,West,281,0.0,0.0,82,0.00,,,0.00,Wunderground v.1.15,2013-10-24 09:25:00,
2013-10-24 05:30:00,40.4,35.3,30.10,West,281,0.0,0.0,82,0.00,,,0.00,Wunderground v.1.15,2013-10-24 09:30:00,
2013-10-24 05:35:00,40.2,35.4,30.10,West,281,0.0,0.0,83,0.00,,,0.00,Wunderground v.1.15,2013-10-24 09:35:00,
2013-10-24 05:40:00,40.1,35.4,30.11,West,281,0.0,0.0,83,0.00,,,0.00,Wunderground v.1.15,2013-10-24 09:40:00,
2013-10-24 05:50:00,40.1,35.4,30.10,West,281,0.0,1.0,83,0.00,,,0.00,Wunderground v.1.15,2013-10-24 09:50:00,
2013-10-24 05:55:00,40.0,35.3,30.11,West,281,0.0,1.0,83,0.00,,,0.00,Wunderground v.1.15,2013-10-24 09:55:00,
2013-10-24 06:00:00,40.0,35.6,30.11,West,281,0.0,0.0,84,0.00,,,0.00,Wunderground v.1.15,2013-10-24 10:00:00,
2013-10-24 06:10:00,39.9,35.5,30.11,West,281,0.0,0.0,84,0.00,,,0.00,Wunderground v.1.15,2013-10-24 10:10:00,
2013-10-24 06:15:00,39.9,35.5,30.11,West,281,0.0,0.0,84,0.00,,,0.00,Wunderground v.1.15,2013-10-24 10:15:00,
2013-10-24 06:20:00,39.8,35.4,30.12,West,281,0.0,0.0,84,0.00,,,0.00,Wunderground v.1.15,2013-10-24 10:20:00,
2013-10-24 06:25:00,39.8,35.4,30.11,West,281,0.0,2.0,84,0.00,,,0.00,Wunderground v.1.15,2013-10-24 10:25:00,
2013-10-24 06:35:00,39.9,35.5,30.12,West,281,0.0,0.0,84,0.00,,,0.00,Wunderground v.1.15,2013-10-24 10:35:00,
2013-10-24 06:40:00,39.8,35.4,30.12,West,281,0.0,0.0,84,0.00,,,0.00,Wunderground v.1.15,2013-10-24 10:40:00,
2013-10-24 06:45:00,39.7,35.3,30.12,West,281,0.0,0.0,84,0.00,,,0.00,Wunderground v.1.15,2013-10-24 10:45:00,
2013-10-24 06:50:00,39.5,35.4,30.12,West,281,0.0,0.0,85,0.00,,,0.00,Wunderground v.1.15,2013-10-24 10:50:00,
2013-10-24 06:55:00,39.2,35.1,30.12,West,281,0.0,0.0,85,0.00,,,0.00,Wunderground v.1.15,2013-10-24 10:55:00,
2013-10-24 07:00:00,39.0,35.5,30.12,West,281,0.0,0.0,87,0.00,,,0.00,Wunderground v.1.15,2013-10-24 11:00:00,
2013-10-24 07:10:00,38.7,35.2,30.13,West,281,0.0,0.0,87,0.00,,,0.00,Wunderground v.1.15,2013-10-24 11:10:00,
2013-10-24 07:15:00,38.5,35.3,30.13,West,281,0.0,0.0,88,0.00,,,0.00,Wunderground v.1.15,2013-10-24 11:15:00,
2013-10-24 07:20:00,38.3,35.1,30.13,West,281,0.0,0.0,88,0.00,,,0.00,Wunderground v.1.15,2013-10-24 11:20:00,
2013-10-24 07:25:00,38.1,34.9,30.13,West,281,0.0,0.0,88,0.00,,,0.00,Wunderground v.1.15,2013-10-24 11:25:00,
2013-10-24 07:30:00,37.9,34.9,30.13,West,281,0.0,0.0,89,0.00,,,0.00,Wunderground v.1.15,2013-10-24 11:30:00,
2013-10-24 07:35:00,37.8,34.8,30.14,West,281,0.0,0.0,89,0.00,,,0.00,Wunderground v.1.15,2013-10-24 11:35:00,
2013-10-24 07:40:00,37.8,34.8,30.13,West,281,0.0,0.0,89,0.00,,,0.00,Wunderground v.1.15,2013-10-24 11:40:00,
2013-10-24 07:50:00,37.8,35.1,30.13,West,281,0.0,0.0,90,0.00,,,0.00,Wunderground v.1.15,2013-10-24 11:50:00,
2013-10-24 07:55:00,38.0,35.3,30.14,West,281,0.0,0.0,90,0.00,,,0.00,Wunderground v.1.15,2013-10-24 11:55:00,
2013-10-24 08:00:00,38.2,35.5,30.14,West,281,0.0,0.0,90,0.00,,,0.00,Wunderground v.1.15,2013-10-24 12:00:00,
2013-10-24 08:10:00,38.8,35.8,30.14,West,281,0.0,0.0,89,0.00,,,0.00,Wunderground v.1.15,2013-10-24 12:10:00,
2013-10-24 08:15:00,39.0,36.0,30.14,West,281,0.0,0.0,89,0.00,,,0.00,Wunderground v.1.15,2013-10-24 12:15:00,
2013-10-24 08:25:00,39.9,36.6,30.15,West,281,0.0,0.0,88,0.00,,,0.00,Wunderground v.1.15,2013-10-24 12:25:00,
2013-10-24 08:30:00,40.4,37.1,30.15,West,281,0.0,0.0,88,0.00,,,0.00,Wunderground v.1.15,2013-10-24 12:30:00,
2013-10-24 08:35:00,40.9,37.3,30.16,West,281,0.0,2.0,87,0.00,,,0.00,Wunderground v.1.15,2013-10-24 12:35:00,
2013-10-24 08:40:00,41.5,37.3,30.16,West,281,0.0,2.0,85,0.00,,,0.00,Wunderground v.1.15,2013-10-24 12:40:00,
2013-10-24 08:45:00,42.0,37.8,30.16,NNE,22,1.0,2.0,85,0.00,,,0.00,Wunderground v.1.15,2013-10-24 12:45:00,
2013-10-24 08:50:00,42.7,37.9,30.16,NW,304,1.0,1.0,83,0.00,,,0.00,Wunderground v.1.15,2013-10-24 12:50:00,
2013-10-24 09:00:00,44.1,37.3,30.17,West,278,1.0,1.0,77,0.00,,,0.00,Wunderground v.1.15,2013-10-24 13:00:00,
2013-10-24 09:10:00,44.7,37.3,30.17,WSW,252,3.0,3.0,75,0.00,,,0.00,Wunderground v.1.15,2013-10-24 13:10:00,
2013-10-24 09:15:00,45.1,36.6,30.17,West,265,3.0,7.0,72,0.00,,,0.00,Wunderground v.1.15,2013-10-24 13:15:00,
2013-10-24 09:20:00,45.3,36.8,30.17,West,272,3.0,6.0,72,0.00,,,0.00,Wunderground v.1.15,2013-10-24 13:20:00,
2013-10-24 09:25:00,46.0,36.8,30.18,West,273,3.0,6.0,70,0.00,,,0.00,Wunderground v.1.15,2013-10-24 13:25:00,
2013-10-24 09:35:00,46.7,36.7,30.18,West,274,5.0,5.0,68,0.00,,,0.00,Wunderground v.1.15,2013-10-24 13:35:00,
2013-10-24 09:40:00,47.0,36.2,30.18,West,277,5.0,5.0,66,0.00,,,0.00,Wunderground v.1.15,2013-10-24 13:40:00,
2013-10-24 09:45:00,47.6,36.8,30.18,WNW,290,4.0,5.0,66,0.00,,,0.00,Wunderground v.1.15,2013-10-24 13:45:00,
2013-10-24 09:50:00,48.2,37.0,30.18,WSW,253,3.0,3.0,65,0.00,,,0.00,Wunderground v.1.15,2013-10-24 13:50:00,
2013-10-24 09:55:00,48.6,36.6,30.18,WNW,302,2.0,3.0,63,0.00,,,0.00,Wunderground v.1.15,2013-10-24 13:55:00,
2013-10-24 10:00:00,49.0,36.5,30.18,West,267,2.0,10.0,62,0.00,,,0.00,Wunderground v.1.15,2013-10-24 14:00:00,
2013-10-24 10:10:00,49.5,36.6,30.18,West,281,5.0,5.0,61,0.00,,,0.00,Wunderground v.1.15,2013-10-24 14:10:00,
2013-10-24 10:15:00,49.9,35.7,30.18,West,270,4.0,5.0,58,0.00,,,0.00,Wunderground v.1.15,2013-10-24 14:15:00,
2013-10-24 10:20:00,49.7,35.5,30.18,WNW,293,5.0,5.0,58,0.00,,,0.00,Wunderground v.1.15,2013-10-24 14:20:00,
2013-10-24 10:25:00,50.3,36.9,30.18,SW,225,5.0,10.0,60,0.00,,,0.00,Wunderground v.1.15,2013-10-24 14:25:00,
2013-10-24 10:30:00,50.2,36.4,30.18,SW,225,5.0,5.0,59,0.00,,,0.00,Wunderground v.1.15,2013-10-24 14:30:00,
2013-10-24 10:35:00,50.5,36.3,30.18,West,269,6.0,6.0,58,0.00,,,0.00,Wunderground v.1.15,2013-10-24 14:35:00,
2013-10-24 10:40:00,50.5,35.4,30.18,WSW,250,6.0,6.0,56,0.00,,,0.00,Wunderground v.1.15,2013-10-24 14:40:00,
2013-10-24 10:50:00,50.3,35.2,30.18,West,263,7.0,7.0,56,0.00,,,0.00,Wunderground v.1.15,2013-10-24 14:50:00,
2013-10-24 10:55:00,50.8,35.2,30.17,SW,220,7.0,9.0,55,0.00,,,0.00,Wunderground v.1.15,2013-10-24 14:55:00,
2013-10-24 11:00:00,51.0,35.4,30.17,WSW,257,6.0,6.0,55,0.00,,,0.00,Wunderground v.1.15,2013-10-24 15:00:00,
2013-10-24 11:10:00,50.9,34.4,30.17,West,267,6.0,6.0,53,0.00,,,0.00,Wunderground v.1.15,2013-10-24 15:10:00,
2013-10-24 11:15:00,51.5,34.0,30.17,West,275,6.0,6.0,51,0.00,,,0.00,Wunderground v.1.15,2013-10-24 15:15:00,
2013-10-24 11:25:00,52.0,33.9,30.17,WNW,298,5.0,9.0,50,0.00,,,0.00,Wunderground v.1.15,2013-10-24 15:25:00,
2013-10-24 11:30:00,52.1,33.5,30.17,West,259,6.0,7.0,49,0.00,,,0.00,Wunderground v.1.15,2013-10-24 15:30:00,
2013-10-24 11:35:00,52.0,32.9,30.17,West,281,6.0,7.0,48,0.00,,,0.00,Wunderground v.1.15,2013-10-24 15:35:00,
2013-10-24 11:40:00,52.5,34.9,30.17,WSW,248,6.0,6.0,51,0.00,,,0.00,Wunderground v.1.15,2013-10-24 15:40:00,
2013-10-24 11:45:00,53.0,33.8,30.16,NW,304,4.0,6.0,48,0.00,,,0.00,Wunderground v.1.15,2013-10-24 15:45:00,
2013-10-24 11:50:00,53.1,33.9,30.16,WNW,292,4.0,4.0,48,0.00,,,0.00,Wunderground v.1.15,2013-10-24 15:50:00,
2013-10-24 12:00:00,53.3,34.1,30.16,WNW,286,4.0,4.0,48,0.00,,,0.00,Wunderground v.1.15,2013-10-24 16:00:00,
2013-10-24 12:10:00,53.5,34.3,30.15,SSW,213,3.0,5.0,48,0.00,,,0.00,Wunderground v.1.15,2013-10-24 16:10:00,
2013-10-24 12:15:00,53.9,35.2,30.16,SW,217,2.0,5.0,49,0.00,,,0.00,Wunderground v.1.15,2013-10-24 16:15:00,
2013-10-24 12:20:00,54.0,34.7,30.15,West,267,4.0,8.0,48,0.00,,,0.00,Wunderground v.1.15,2013-10-24 16:20:00,
2013-10-24 12:25:00,53.5,33.2,30.15,WSW,251,7.0,8.0,46,0.00,,,0.00,Wunderground v.1.15,2013-10-24 16:25:00,
2013-10-24 12:35:00,54.4,35.1,30.15,West,259,3.0,7.0,48,0.00,,,0.00,Wunderground v.1.15,2013-10-24 16:35:00,
2013-10-24 12:40:00,54.4,35.1,30.14,SW,215,5.0,5.0,48,0.00,,,0.00,Wunderground v.1.15,2013-10-24 16:40:00,
2013-10-24 12:45:00,54.1,34.3,30.14,SW,215,3.0,5.0,47,0.00,,,0.00,Wunderground v.1.15,2013-10-24 16:45:00,
2013-10-24 12:50:00,54.6,35.3,30.14,West,265,3.0,3.0,48,0.00,,,0.00,Wunderground v.1.15,2013-10-24 16:50:00,
2013-10-24 12:55:00,55.1,35.7,30.14,SSW,195,5.0,7.0,48,0.00,,,0.00,Wunderground v.1.15,2013-10-24 16:55:00,
2013-10-24 13:00:00,54.9,35.0,30.14,WSW,249,6.0,13.0,47,0.00,,,0.00,Wunderground v.1.15,2013-10-24 17:00:00,
2013-10-24 13:10:00,55.3,35.4,30.13,SW,214,9.0,9.0,47,0.00,,,0.00,Wunderground v.1.15,2013-10-24 17:10:00,
2013-10-24 13:15:00,55.5,35.0,30.12,SW,232,8.0,12.0,46,0.00,,,0.00,Wunderground v.1.15,2013-10-24 17:15:00,
2013-10-24 13:20:00,55.0,33.5,30.13,West,259,9.0,9.0,44,0.00,,,0.00,Wunderground v.1.15,2013-10-24 17:20:00,
2013-10-24 13:25:00,55.3,35.4,30.12,West,260,7.0,10.0,47,0.00,,,0.00,Wunderground v.1.15,2013-10-24 17:25:00,
2013-10-24 13:30:00,55.3,34.3,30.12,SSW,196,6.0,9.0,45,0.00,,,0.00,Wunderground v.1.15,2013-10-24 17:30:00,
2013-10-24 13:40:00,55.9,34.8,30.11,West,274,6.0,8.0,45,0.00,,,0.00,Wunderground v.1.15,2013-10-24 17:40:00,
2013-10-24 13:45:00,56.3,35.2,30.11,NW,306,7.0,8.0,45,0.00,,,0.00,Wunderground v.1.15,2013-10-24 17:45:00,
2013-10-24 13:50:00,55.7,34.7,30.12,SW,233,6.0,11.0,45,0.00,,,0.00,Wunderground v.1.15,2013-10-24 17:50:00,
2013-10-24 13:55:00,56.2,35.1,30.11,West,270,7.0,11.0,45,0.00,,,0.00,Wunderground v.1.15,2013-10-24 17:55:00,
2013-10-24 14:00:00,56.7,35.6,30.11,SW,227,8.0,8.0,45,0.00,,,0.00,Wunderground v.1.15,2013-10-24 18:00:00,
2013-10-24 14:10:00,56.6,36.0,30.11,WSW,255,7.0,15.0,46,0.00,,,0.00,Wunderground v.1.15,2013-10-24 18:10:00,
2013-10-24 14:15:00,56.6,34.9,30.11,WSW,238,8.0,15.0,44,0.00,,,0.00,Wunderground v.1.15,2013-10-24 18:15:00,
2013-10-24 14:20:00,56.5,35.4,30.11,WSW,255,8.0,8.0,45,0.00,,,0.00,Wunderground v.1.15,2013-10-24 18:20:00,
2013-10-24 14:25:00,57.0,35.9,30.11,West,273,8.0,8.0,45,0.00,,,0.00,Wunderground v.1.15,2013-10-24 18:25:00,
2013-10-24 14:30:00,57.1,34.8,30.11,WSW,238,8.0,8.0,43,0.00,,,0.00,Wunderground v.1.15,2013-10-24 18:30:00,
2013-10-24 14:35:00,57.0,35.3,30.10,West,259,8.0,8.0,44,0.00,,,0.00,Wunderground v.1.15,2013-10-24 18:35:00,
2013-10-24 14:40:00,57.2,35.5,30.10,SW,222,8.0,8.0,44,0.00,,,0.00,Wunderground v.1.15,2013-10-24 18:40:00,
2013-10-24 14:45:00,57.2,35.5,30.10,SW,232,8.0,8.0,44,0.00,,,0.00,Wunderground v.1.15,2013-10-24 18:45:00,
2013-10-24 14:55:00,57.1,34.8,30.10,West,266,7.0,11.0,43,0.00,,,0.00,Wunderground v.1.15,2013-10-24 18:55:00,
2013-10-24 15:00:00,57.5,35.7,30.10,WSW,251,6.0,6.0,44,0.00,,,0.00,Wunderground v.1.15,2013-10-24 19:00:00,
2013-10-24 15:10:00,57.8,36.0,30.10,West,262,5.0,8.0,44,0.00,,,0.00,Wunderground v.1.15,2013-10-24 19:10:00,
2013-10-24 15:15:00,57.6,35.2,30.10,West,269,6.0,11.0,43,0.00,,,0.00,Wunderground v.1.15,2013-10-24 19:15:00,
2013-10-24 15:20:00,57.3,35.6,30.10,SW,225,9.0,10.0,44,0.00,,,0.00,Wunderground v.1.15,2013-10-24 19:20:00,
2013-10-24 15:30:00,57.3,36.1,30.10,West,272,7.0,7.0,45,0.00,,,0.00,Wunderground v.1.15,2013-10-24 19:30:00,
2013-10-24 15:35:00,57.1,35.9,30.10,WNW,294,6.0,7.0,45,0.00,,,0.00,Wunderground v.1.15,2013-10-24 19:35:00,
2013-10-24 15:40:00,58.0,36.8,30.10,WNW,300,5.0,9.0,45,0.00,,,0.00,Wunderground v.1.15,2013-10-24 19:40:00,
2013-10-24 15:45:00,58.2,35.8,30.10,West,279,6.0,9.0,43,0.00,,,0.00,Wunderground v.1.15,2013-10-24 19:45:00,
2013-10-24 15:50:00,57.8,35.4,30.10,West,270,8.0,8.0,43,0.00,,,0.00,Wunderground v.1.15,2013-10-24 19:50:00,
2013-10-24 15:55:00,57.2,36.0,30.10,West,273,6.0,8.0,45,0.00,,,0.00,Wunderground v.1.15,2013-10-24 19:55:00,
2013-10-24 16:00:00,57.2,36.0,30.10,WSW,245,5.0,10.0,45,0.00,,,0.00,Wunderground v.1.15,2013-10-24 20:00:00,
2013-10-24 16:10:00,57.8,34.8,30.10,NW,317,7.0,7.0,42,0.00,,,0.00,Wunderground v.1.15,2013-10-24 20:10:00,
2013-10-24 16:15:00,57.4,35.1,30.10,WNW,291,6.0,7.0,43,0.00,,,0.00,Wunderground v.1.15,2013-10-24 20:15:00,
2013-10-24 16:20:00,57.8,36.6,30.10,West,263,3.0,6.0,45,0.00,,,0.00,Wunderground v.1.15,2013-10-24 20:20:00,
2013-10-24 16:25:00,58.3,37.0,30.10,WNW,296,3.0,6.0,45,0.00,,,0.00,Wunderground v.1.15,2013-10-24 20:25:00,
2013-10-24 16:35:00,57.4,35.6,30.10,WNW,296,5.0,5.0,44,0.00,,,0.00,Wunderground v.1.15,2013-10-24 20:35:00,
2013-10-24 16:40:00,56.8,35.1,30.10,WNW,294,5.0,5.0,44,0.00,,,0.00,Wunderground v.1.15,2013-10-24 20:40:00,
2013-10-24 16:45:00,56.9,35.8,30.11,WNW,288,5.0,7.0,45,0.00,,,0.00,Wunderground v.1.15,2013-10-24 20:45:00,
2013-10-24 16:50:00,57.4,36.8,30.11,West,281,5.0,7.0,46,0.00,,,0.00,Wunderground v.1.15,2013-10-24 20:50:00,
2013-10-24 18:55:00,50.0,39.8,30.14,West,281,0.0,13.0,68,0.00,,,0.00,Wunderground v.1.15,2013-10-24 22:55:00,
2013-10-24 19:00:00,49.5,39.7,30.14,West,281,0.0,0.0,69,0.00,,,0.00,Wunderground v.1.15,2013-10-24 23:00:00,
2013-10-24 19:10:00,48.6,40.0,30.15,West,281,0.0,0.0,72,0.00,,,0.00,Wunderground v.1.15,2013-10-24 23:10:00,
2013-10-24 19:15:00,48.3,40.0,30.15,West,281,0.0,0.0,73,0.00,,,0.00,Wunderground v.1.15,2013-10-24 23:15:00,
2013-10-24 19:20:00,48.0,40.1,30.15,West,281,0.0,0.0,74,0.00,,,0.00,Wunderground v.1.15,2013-10-24 23:20:00,
2013-10-24 19:25:00,47.8,40.6,30.15,West,281,0.0,0.0,76,0.00,,,0.00,Wunderground v.1.15,2013-10-24 23:25:00,
2013-10-24 19:35:00,47.4,41.2,30.16,West,281,0.0,0.0,79,0.00,,,0.00,Wunderground v.1.15,2013-10-24 23:35:00,
2013-10-24 19:40:00,47.4,41.9,30.16,West,281,0.0,0.0,81,0.00,,,0.00,Wunderground v.1.15,2013-10-24 23:40:00,
2013-10-24 19:45:00,47.3,41.8,30.16,West,281,0.0,0.0,81,0.00,,,0.00,Wunderground v.1.15,2013-10-24 23:45:00,
2013-10-24 19:50:00,47.2,41.7,30.17,West,281,0.0,0.0,81,0.00,,,0.00,Wunderground v.1.15,2013-10-24 23:50:00,
2013-10-24 19:55:00,47.1,41.2,30.17,West,281,0.0,0.0,80,0.00,,,0.00,Wunderground v.1.15,2013-10-24 23:55:00,
2013-10-24 20:00:00,47.2,41.0,30.17,West,281,0.0,0.0,79,0.00,,,0.00,Wunderground v.1.15,2013-10-25 00:00:00,
2013-10-24 20:10:00,47.4,41.2,30.17,West,281,0.0,0.0,79,0.00,,,0.00,Wunderground v.1.15,2013-10-25 00:10:00,
2013-10-24 20:15:00,47.4,41.2,30.17,West,281,0.0,0.0,79,0.00,,,0.00,Wunderground v.1.15,2013-10-25 00:15:00,
2013-10-24 20:20:00,47.2,41.0,30.17,West,281,0.0,0.0,79,0.00,,,0.00,Wunderground v.1.15,2013-10-25 00:20:00,
2013-10-24 20:25:00,47.0,40.8,30.18,West,281,0.0,0.0,79,0.00,,,0.00,Wunderground v.1.15,2013-10-25 00:25:00,
2013-10-24 20:30:00,46.9,41.1,30.18,West,281,0.0,0.0,80,0.00,,,0.00,Wunderground v.1.15,2013-10-25 00:30:00,
2013-10-24 20:40:00,46.6,40.8,30.18,West,281,0.0,0.0,80,0.00,,,0.00,Wunderground v.1.15,2013-10-25 00:40:00,
2013-10-24 20:45:00,46.5,40.7,30.18,West,281,0.0,0.0,80,0.00,,,0.00,Wunderground v.1.15,2013-10-25 00:45:00,
2013-10-24 20:50:00,46.2,40.4,30.18,West,281,0.0,0.0,80,0.00,,,0.00,Wunderground v.1.15,2013-10-25 00:50:00,
2013-10-24 20:55:00,45.9,40.4,30.19,West,281,0.0,0.0,81,0.00,,,0.00,Wunderground v.1.15,2013-10-25 00:55:00,
2013-10-24 21:05:00,45.7,40.2,30.19,West,281,0.0,0.0,81,0.00,,,0.00,Wunderground v.1.15,2013-10-25 01:05:00,
2013-10-24 21:10:00,45.6,39.8,30.19,West,281,0.0,0.0,80,0.00,,,0.00,Wunderground v.1.15,2013-10-25 01:10:00,
2013-10-24 21:15:00,45.4,39.3,30.19,West,281,0.0,0.0,79,0.00,,,0.00,Wunderground v.1.15,2013-10-25 01:15:00,
2013-10-24 21:20:00,45.3,39.2,30.19,West,281,0.0,0.0,79,0.00,,,0.00,Wunderground v.1.15,2013-10-25 01:20:00,
2013-10-24 21:30:00,45.3,38.8,30.20,West,281,0.0,0.0,78,0.00,,,0.00,Wunderground v.1.15,2013-10-25 01:30:00,
2013-10-24 21:40:00,45.6,38.5,30.20,West,281,0.0,0.0,76,0.00,,,0.00,Wunderground v.1.15,2013-10-25 01:40:00,
2013-10-24 21:45:00,45.6,38.1,30.20,West,281,0.0,0.0,75,0.00,,,0.00,Wunderground v.1.15,2013-10-25 01:45:00,
2013-10-24 21:50:00,45.7,38.6,30.20,West,281,0.0,0.0,76,0.00,,,0.00,Wunderground v.1.15,2013-10-25 01:50:00,
2013-10-24 21:55:00,45.6,38.1,30.20,West,281,0.0,0.0,75,0.00,,,0.00,Wunderground v.1.15,2013-10-25 01:55:00,
2013-10-24 22:05:00,45.3,37.8,30.20,West,281,0.0,0.0,75,0.00,,,0.00,Wunderground v.1.15,2013-10-25 02:05:00,
2013-10-24 22:10:00,45.2,38.1,30.21,West,281,0.0,0.0,76,0.00,,,0.00,Wunderground v.1.15,2013-10-25 02:10:00,
2013-10-24 22:15:00,44.9,37.8,30.21,West,281,0.0,0.0,76,0.00,,,0.00,Wunderground v.1.15,2013-10-25 02:15:00,
2013-10-24 22:20:00,44.7,37.6,30.21,West,281,0.0,0.0,76,0.00,,,0.00,Wunderground v.1.15,2013-10-25 02:20:00,
2013-10-24 22:25:00,44.4,37.3,30.21,West,281,0.0,0.0,76,0.00,,,0.00,Wunderground v.1.15,2013-10-25 02:25:00,
2013-10-24 22:30:00,44.1,37.7,30.21,West,281,0.0,0.0,78,0.00,,,0.00,Wunderground v.1.15,2013-10-25 02:30:00,
2013-10-24 22:40:00,43.8,38.0,30.21,West,281,0.0,0.0,80,0.00,,,0.00,Wunderground v.1.15,2013-10-25 02:40:00,
2013-10-24 22:45:00,43.8,38.3,30.21,West,281,0.0,0.0,81,0.00,,,0.00,Wunderground v.1.15,2013-10-25 02:45:00,
2013-10-24 22:50:00,44.0,38.5,30.21,West,281,0.0,0.0,81,0.00,,,0.00,Wunderground v.1.15,2013-10-25 02:50:00,
2013-10-24 22:55:00,44.0,38.5,30.21,West,281,0.0,0.0,81,0.00,,,0.00,Wunderground v.1.15,2013-10-25 02:55:00,
2013-10-24 23:00:00,44.0,38.2,30.21,West,281,0.0,0.0,80,0.00,,,0.00,Wunderground v.1.15,2013-10-25 03:00:00,
2013-10-24 23:10:00,44.2,37.8,30.21,West,281,0.0,0.0,78,0.00,,,0.00,Wunderground v.1.15,2013-10-25 03:10:00,
2013-10-24 23:15:00,44.4,38.0,30.21,West,281,0.0,0.0,78,0.00,,,0.00,Wunderground v.1.15,2013-10-25 03:15:00,
2013-10-24 23:20:00,44.7,37.3,30.21,West,281,0.0,0.0,75,0.00,,,0.00,Wunderground v.1.15,2013-10-25 03:20:00,
2013-10-24 23:25:00,45.2,37.4,30.21,West,281,0.0,0.0,74,0.00,,,0.00,Wunderground v.1.15,2013-10-25 03:25:00,
2013-10-24 23:30:00,45.6,37.4,30.21,West,281,0.0,0.0,73,0.00,,,0.00,Wunderground v.1.15,2013-10-25 03:30:00,
2013-10-24 23:35:00,45.9,37.4,30.21,West,281,0.0,0.0,72,0.00,,,0.00,Wunderground v.1.15,2013-10-25 03:35:00,
2013-10-24 23:45:00,46.1,37.6,30.21,West,281,0.0,0.0,72,0.00,,,0.00,Wunderground v.1.15,2013-10-25 03:45:00,
2013-10-24 23:50:00,46.2,37.3,30.21,West,281,0.0,0.0,71,0.00,,,0.00,Wunderground v.1.15,2013-10-25 03:50:00,
2013-10-24 23:55:00,46.2,37.3,30.21,West,281,0.0,0.0,71,0.00,,,0.00,Wunderground v.1.15,2013-10-25 03:55:00,